Regional Weather Roundup
Issued by NWS

Home | Current Version | Previous Version | Graphics & Text | Print | Product List | Glossary On
Versions: 1 2 3 4 5 6 7 8 9 10 11 12 13 14 15 16 17 18 19 20 21 22 23 24 25 26 27 28
000
ASUS45 KCYS 220410
RWRWY

WYOMING REGIONAL WEATHER ROUNDUP
NATIONAL WEATHER SERVICE CHEYENNE WY
900 PM MST WED FEB 21 2018

NOTE:  "FAIR" INDICATES FEW OR NO CLOUDS BELOW 12,000 FEET
WITH NO SIGNIFICANT WEATHER AND/OR OBSTRUCTIONS TO VISIBILITY.

WYZ001-220500-
YELLOWSTONE NATIONAL PARK

CITY           SKY/WX    TMP DP  RH WIND       PRES   REMARKS
LK YELLOWSTONE   N/A     -8 -12  83 CALM      29.95R
W YELLOWSTONE  NOT AVBL

$$
WYZ002>013-054>058-071-098>099-220500-
NORTHERN WYOMING

CITY           SKY/WX    TMP DP  RH WIND       PRES   REMARKS
JACKSON        CLOUDY     9   1  70 SE3       30.01R
CODY           FAIR       0  -4  83 SW8       30.03R WCI -14
GREYBULL       FAIR      -8 -12  83 NW3       30.11R
WORLAND        FAIR      -2  -6  83 CALM      30.08S
SHERIDAN       FAIR      -7 -11  83 SW3       30.06S
BUFFALO        FAIR      15  -5  40 N8        30.01S WCI   4
GILLETTE       FAIR      10   0  63 SE8       30.06F WCI  -2
HULETT         FAIR      18   3  53 MISG      30.10S
NEWCASTLE      FAIR      18   1  49 E10       30.16S WCI   6

$$
WYZ014>020-022>026-101>103-220500-
CENTRAL WYOMING

CITY           SKY/WX    TMP DP  RH WIND       PRES   REMARKS
BIG PINEY      FAIR      -5  -7  91 E3        30.04S
PINEDALE       CLOUDY     1  -4  78 CALM      30.05R
DUBOIS           N/A    N/A N/A N/A MISG        N/A
LANDER         FAIR       0  -5  79 W5        30.05S WCI -10
RIVERTON       FAIR      -3 -12  65 NW6       30.07S WCI -15
CASPER         FAIR      18   4  54 S6        30.07S WCI  10
DOUGLAS        MOCLDY     6   0  76 MISG      30.11S

$$
WYZ021-027>030-104>119-220500-
SOUTHERN WYOMING

CITY           SKY/WX    TMP DP  RH WIND       PRES   REMARKS
EVANSTON       FAIR       3  -4  72 E8        29.98F WCI -10
ROCK SPRINGS   FAIR       8   0  69 NE5       30.03F WCI   0
DIXON          CLOUDY    17   7  65 E5        30.05F WCI   9
RAWLINS        CLOUDY     8   1  73 N3        30.04S
SARATOGA       MOCLDY     7   0  72 S7        30.03S WCI  -5
LARAMIE        CLOUDY     9   4  80 S5        30.02S WCI   1
CHEYENNE       CLOUDY    13   7  77 CALM      30.08F
TORRINGTON     FAIR      14  10  84 E8        30.18S WCI   3
PINE BLUFFS    FAIR      -4  -9  77 MISG      30.14F

$$




USA.gov is the U.S. government's official web portal to all federal, state and local government web resources and services.